[keps] orb07291.amsat
Ray Hoad
r.hoad at att.net
Thu Oct 18 19:10:19 PDT 2007
SB KEPS @ AMSAT $ORB07291.O
Orbital Elements 07291.OSCAR
HR AMSAT ORBITAL ELEMENTS FOR OSCAR SATELLITES
FROM WA5QGD FORT WORTH,TX October 18, 2007
Send Subscribe/unsubscribe to KEPS at
http://www.amsat.org/mailman/listinfo/keps
BID: ORB07291.O
TO ALL RADIO AMATEURS BT
Satellite: AO-07
Catalog number: 07530
Epoch time: 07291.52233884
Element set: 3
Inclination: 101.5022 deg
RA of node: 325.8453 deg
Eccentricity: 0.0011989
Arg of perigee: 016.5903 deg
Mean anomaly: 343.5562 deg
Mean motion: 12.53572744 rev/day
Decay rate: -2.8e-07 rev/day^2
Epoch rev: 50657
Checksum: 285
Satellite: AO-10
Catalog number: 14129
Epoch time: 07289.96721458
Element set: 434
Inclination: 026.0615 deg
RA of node: 250.9204 deg
Eccentricity: 0.6056544
Arg of perigee: 065.1206 deg
Mean anomaly: 344.8973 deg
Mean motion: 02.05869616 rev/day
Decay rate: 6.4e-07 rev/day^2
Epoch rev: 18307
Checksum: 310
Satellite: UO-11
Catalog number: 14781
Epoch time: 07290.73245554
Element set: 498
Inclination: 098.1821 deg
RA of node: 315.7545 deg
Eccentricity: 0.0009933
Arg of perigee: 133.4560 deg
Mean anomaly: 226.7454 deg
Mean motion: 14.79586606 rev/day
Decay rate: 2.16e-06 rev/day^2
Epoch rev: 26785
Checksum: 331
Satellite: RS-15
Catalog number: 23439
Epoch time: 07290.90959802
Element set: 0084
Inclination: 064.8159 deg
RA of node: 168.4561 deg
Eccentricity: 0.0155442
Arg of perigee: 168.6241 deg
Mean anomaly: 191.8260 deg
Mean motion: 11.27552492 rev/day
Decay rate: -3.9e-07 rev/day^2
Epoch rev: 52753
Checksum: 323
Satellite: FO-29
Catalog number: 24278
Epoch time: 07291.77975313
Element set: 615
Inclination: 098.5666 deg
RA of node: 234.9093 deg
Eccentricity: 0.0351327
Arg of perigee: 123.0615 deg
Mean anomaly: 240.4788 deg
Mean motion: 13.52932312 rev/day
Decay rate: -1.5e-07 rev/day^2
Epoch rev: 55161
Checksum: 316
Satellite: SO-33
Catalog number: 25509
Epoch time: 07290.94110056
Element set: 0045
Inclination: 031.4302 deg
RA of node: 251.6970 deg
Eccentricity: 0.0354853
Arg of perigee: 060.5636 deg
Mean anomaly: 302.9908 deg
Mean motion: 14.28182072 rev/day
Decay rate: 1.15e-06 rev/day^2
Epoch rev: 46881
Checksum: 287
Satellite: AO-40
Catalog number: 26609
Epoch time: 07290.16234480
Element set: 954
Inclination: 006.7560 deg
RA of node: 115.5814 deg
Eccentricity: 0.7943369
Arg of perigee: 014.1870 deg
Mean anomaly: 359.1983 deg
Mean motion: 01.25585842 rev/day
Decay rate: -2.3e-07 rev/day^2
Epoch rev: 3197
Checksum: 317
Satellite: VO-52
Catalog number: 28650
Epoch time: 07290.84267090
Element set: 0756
Inclination: 097.8206 deg
RA of node: 358.7407 deg
Eccentricity: 0.0026599
Arg of perigee: 212.1254 deg
Mean anomaly: 147.8337 deg
Mean motion: 14.81370121 rev/day
Decay rate: 4.34e-06 rev/day^2
Epoch rev: 13257
Checksum: 314
Satellite: PO-63
Catalog number: 29712
Epoch time: 07291.85084999
Element set: 831
Inclination: 097.9091 deg
RA of node: 349.2219 deg
Eccentricity: 0.0015560
Arg of perigee: 088.6202 deg
Mean anomaly: 271.6788 deg
Mean motion: 14.79856354 rev/day
Decay rate: 4.16e-06 rev/day^2
Epoch rev: 4162
Checksum: 346
/EX
SB KEPS @ AMSAT $ORB07291.D
Orbital Elements 07291.MICROS
HR AMSAT ORBITAL ELEMENTS FOR THE MICROSATS
FROM WA5QGD FORT WORTH,TX October 18, 2007
Send Subscribe/unsubscribe to KEPS at
http://www.amsat.org/mailman/listinfo/keps
BID: ORB07291.D
TO ALL RADIO AMATEURS BT
Satellite: AO-16
Catalog number: 20439
Epoch time: 07290.52759536
Element set: 0158
Inclination: 098.2069 deg
RA of node: 278.4073 deg
Eccentricity: 0.0010704
Arg of perigee: 177.4454 deg
Mean anomaly: 182.6783 deg
Mean motion: 14.31772647 rev/day
Decay rate: 2.0e-08 rev/day^2
Epoch rev: 92605
Checksum: 321
Satellite: LO-19
Catalog number: 20442
Epoch time: 07290.61545809
Element set: 82
Inclination: 098.1882 deg
RA of node: 287.6474 deg
Eccentricity: 0.0011926
Arg of perigee: 175.9580 deg
Mean anomaly: 184.1690 deg
Mean motion: 14.32011943 rev/day
Decay rate: -9.4e-07 rev/day^2
Epoch rev: 92621
Checksum: 318
Satellite: AO-27
Catalog number: 22825
Epoch time: 07291.48335069
Element set: 805
Inclination: 098.3485 deg
RA of node: 256.0876 deg
Eccentricity: 0.0007496
Arg of perigee: 257.2920 deg
Mean anomaly: 102.7425 deg
Mean motion: 14.29219811 rev/day
Decay rate: -4.0e-08 rev/day^2
Epoch rev: 73310
Checksum: 312
Satellite: IO-26
Catalog number: 22826
Epoch time: 07291.85940770
Element set: 504
Inclination: 098.3413 deg
RA of node: 257.4670 deg
Eccentricity: 0.0008003
Arg of perigee: 254.6571 deg
Mean anomaly: 105.3732 deg
Mean motion: 14.29467042 rev/day
Decay rate: 6.0e-08 rev/day^2
Epoch rev: 73324
Checksum: 293
Satellite: PO-28
Catalog number: 22829
Epoch time: 07291.47499296
Element set: 780
Inclination: 098.3313 deg
RA of node: 258.2470 deg
Eccentricity: 0.0008940
Arg of perigee: 225.0520 deg
Mean anomaly: 134.9933 deg
Mean motion: 14.30168566 rev/day
Decay rate: -5.7e-07 rev/day^2
Epoch rev: 73343
Checksum: 325
Satellite: GO-32
Catalog number: 25397
Epoch time: 07290.77686336
Element set: 0429
Inclination: 098.3992 deg
RA of node: 332.5395 deg
Eccentricity: 0.0000716
Arg of perigee: 187.0424 deg
Mean anomaly: 173.0721 deg
Mean motion: 14.23132008 rev/day
Decay rate: -7.1e-07 rev/day^2
Epoch rev: 48159
Checksum: 312
Satellite: MO-46
Catalog number: 26548
Epoch time: 07290.76616009
Element set: 0924
Inclination: 064.5562 deg
RA of node: 163.4385 deg
Eccentricity: 0.0000176
Arg of perigee: 284.3833 deg
Mean anomaly: 075.7203 deg
Mean motion: 14.83183713 rev/day
Decay rate: 4.3e-07 rev/day^2
Epoch rev: 38171
Checksum: 307
Satellite: NO-44
Catalog number: 26931
Epoch time: 07290.73830228
Element set: 0712
Inclination: 067.0527 deg
RA of node: 191.7993 deg
Eccentricity: 0.0006116
Arg of perigee: 251.1978 deg
Mean anomaly: 108.8484 deg
Mean motion: 14.29499748 rev/day
Decay rate: 2.43e-06 rev/day^2
Epoch rev: 31561
Checksum: 328
Satellite: SO-50
Catalog number: 27607
Epoch time: 07291.83159779
Element set: 434
Inclination: 064.5578 deg
RA of node: 069.6114 deg
Eccentricity: 0.0068963
Arg of perigee: 329.2992 deg
Mean anomaly: 030.4077 deg
Mean motion: 14.71293011 rev/day
Decay rate: -8.5e-07 rev/day^2
Epoch rev: 25931
Checksum: 331
Satellite: CO-55
Catalog number: 27844
Epoch time: 07290.66322802
Element set: 0146
Inclination: 098.7202 deg
RA of node: 297.3021 deg
Eccentricity: 0.0010678
Arg of perigee: 096.9105 deg
Mean anomaly: 263.3278 deg
Mean motion: 14.20536731 rev/day
Decay rate: 2.9e-07 rev/day^2
Epoch rev: 22286
Checksum: 302
Satellite: CO-57
Catalog number: 27848
Epoch time: 07290.55866056
Element set: 0104
Inclination: 098.7201 deg
RA of node: 296.3538 deg
Eccentricity: 0.0010508
Arg of perigee: 100.0446 deg
Mean anomaly: 260.1923 deg
Mean motion: 14.20352698 rev/day
Decay rate: 3.7e-07 rev/day^2
Epoch rev: 22282
Checksum: 297
Satellite: AO-51
Catalog number: 28375
Epoch time: 07290.67400937
Element set: 936
Inclination: 098.1007 deg
RA of node: 323.6097 deg
Eccentricity: 0.0083475
Arg of perigee: 170.6861 deg
Mean anomaly: 189.5907 deg
Mean motion: 14.40583019 rev/day
Decay rate: 1.3e-07 rev/day^2
Epoch rev: 17334
Checksum: 321
Satellite: CO-56
Catalog number: 28941
Epoch time: 07291.61312862
Element set: 595
Inclination: 098.1152 deg
RA of node: 006.7859 deg
Eccentricity: 0.0209721
Arg of perigee: 194.1276 deg
Mean anomaly: 165.4170 deg
Mean motion: 15.44283144 rev/day
Decay rate: 2.6286e-04 rev/day^2
Epoch rev: 9245
Checksum: 326
Satellite: HO-59
Catalog number: 29484
Epoch time: 07291.67435468
Element set: 777
Inclination: 098.2663 deg
RA of node: 000.9834 deg
Eccentricity: 0.0175878
Arg of perigee: 179.8271 deg
Mean anomaly: 180.3089 deg
Mean motion: 15.60384685 rev/day
Decay rate: 5.4384e-04 rev/day^2
Epoch rev: 6027
Checksum: 375
Satellite: NO-61
Catalog number: 29664
Epoch time: 07291.88619482
Element set: 570
Inclination: 051.6281 deg
RA of node: 156.0070 deg
Eccentricity: 0.0009388
Arg of perigee: 119.8793 deg
Mean anomaly: 240.3149 deg
Mean motion: 16.02645025 rev/day
Decay rate: 7.1931e-04 rev/day^2
Epoch rev: 4791
Checksum: 323
Satellite: CP4
Catalog number: 31122
Epoch time: 07291.55847949
Element set: 163
Inclination: 098.0743 deg
RA of node: 000.7751 deg
Eccentricity: 0.0085366
Arg of perigee: 003.2175 deg
Mean anomaly: 356.9557 deg
Mean motion: 14.55041869 rev/day
Decay rate: 5.49e-06 rev/day^2
Epoch rev: 2679
Checksum: 324
Satellite: CP3
Catalog number: 31128
Epoch time: 07290.85743542
Element set: 0160
Inclination: 098.0721 deg
RA of node: 359.1862 deg
Eccentricity: 0.0103223
Arg of perigee: 007.6652 deg
Mean anomaly: 352.6081 deg
Mean motion: 14.51872675 rev/day
Decay rate: -4.8e-07 rev/day^2
Epoch rev: 02662
Checksum: 289
Satellite: LIBERT
Catalog number: 31129
Epoch time: 07291.19090455
Element set: 445
Inclination: 098.0735 deg
RA of node: 359.5236 deg
Eccentricity: 0.0103179
Arg of perigee: 006.5633 deg
Mean anomaly: 353.6868 deg
Mean motion: 14.51966306 rev/day
Decay rate: 3.37e-06 rev/day^2
Epoch rev: 2665
Checksum: 311
/EX
SB KEPS @ AMSAT $ORB07291.W
Orbital Elements 07291.WEATHER
HR AMSAT ORBITAL ELEMENTS FOR WEATHER SATELLITES
FROM WA5QGD FORT WORTH,TX October 18, 2007
Send Subscribe/unsubscribe to KEPS at
http://www.amsat.org/mailman/listinfo/keps
BID: ORB07291.W
TO ALL RADIO AMATEURS BT
Satellite: NOAA-10
Catalog number: 16969
Epoch time: 07290.62852407
Element set: 0853
Inclination: 098.7419 deg
RA of node: 307.8662 deg
Eccentricity: 0.0012333
Arg of perigee: 167.5183 deg
Mean anomaly: 192.6293 deg
Mean motion: 14.27337011 rev/day
Decay rate: -1.7e-07 rev/day^2
Epoch rev: 09669
Checksum: 324
Satellite: NOAA-11
Catalog number: 19531
Epoch time: 07290.75732186
Element set: 0887
Inclination: 098.8091 deg
RA of node: 018.3793 deg
Eccentricity: 0.0012323
Arg of perigee: 044.2899 deg
Mean anomaly: 315.9265 deg
Mean motion: 14.14852724 rev/day
Decay rate: -2.51e-06 rev/day^2
Epoch rev: 98348
Checksum: 334
